レモン彗星

C/2018 R5 ( Lemmon )

English version
Home page
Updated on May 20, 2019

---------------------------------------------------------------------

・ プロフィール

発見日 2018年9月8日
発見光度 19.0等
発見者 A. D. Grauer (Mount Lemmon)

・ 写真集

・ 軌道要素

Epoch 2018 Dec. 28.0 TT = JDT 2458480.5
T 2019 Jan.  9.98874 TT                                 MPCW
q   3.6212222            (2000.0)            P               Q
n   0.00902149     Peri.  178.01349     +0.98874868     -0.00234345
a  22.8533931      Node   171.14208     -0.14711396     +0.16580047
e   0.8415455      Incl.  103.75621     -0.02708358     -0.98615654
P 109
From 186 observations 2018 July 5-Nov. 13, mean residual 0".5.

・ 光度変化

        m1 = 11.0 + 5 logΔ + 10.0 log r

---------------------------------------------------------------------

軌道要素はM.P.E.C. 2019-J142に掲載されたものです。
光度グラフはComet for Windowsで作成したものです。

---------------------------------------------------------------------

Copyright(C) Seiichi Yoshida (comet@aerith.net). All rights reserved.